Regional Weather Roundup
Issued by NWS

Home | Current Version | Previous Version | Text Only | Print | Product List | Glossary On
Versions: 1 2 3 4 5 6 7 8 9 10 11 12 13 14 15 16 17 18 19 20 21 22 23 24 25 26 27 28 29 30 31 32 33 34 35 36 37 38 39 40 41 42 43 44 45 46 47 48 49 50
000
ASUS43 KOAX 281302
RWRNE

WEATHER ROUNDUP FOR NEBRASKA
NATIONAL WEATHER SERVICE OMAHA NE
800 AM CDT MON JUL 28 2014

NOTES: SATELLITE DATA IS BEING USED TO AUGMENT CLOUD COVER ABOVE
       12000 FEET.
       "FAIR" INDICATES FEW OR NO CLOUDS BELOW 12,000 FEET WITH NO
       SIGNIFICANT WEATHER AND/OR OBSTRUCTIONS TO VISIBILITY.

  * THESE STATIONS DO NOT REPORT WEATHER SUCH AS RAIN...SNOW OR FOG.

NEZ001>004-019>022-054>056-281400-
NEBRASKA PANHANDLE

CITY           SKY/WX    TMP DP  RH WIND       PRES   REMARKS
SCOTTSBLUFF    SUNNY     61  50  67 E8        30.33R
ALLIANCE       SUNNY     59  51  75 E10       30.35R
CHADRON        SUNNY     58  51  78 NE3       30.34S
KIMBALL        SUNNY     61  50  67 S5        30.33S
SIDNEY         SUNNY     62  48  60 SE7       30.34S
$$

NEZ057>060-069>072-079>082-281400-
SOUTHWEST NEBRASKA

CITY           SKY/WX    TMP DP  RH WIND       PRES   REMARKS
NORTH PLATTE   SUNNY     57  54  89 E3        30.35R
IMPERIAL       MOSUNNY   61  55  81 E8        30.32S
LEXINGTON      SUNNY     58  56  92 CALM      30.34R
MCCOOK         MOSUNNY   60  56  86 E8        30.33R
OGALLALA       SUNNY     57  52  82 E8        30.34S
$$

NEZ005>010-023>029-035>040-094-281400-
NORTH CENTRAL NEBRASKA

CITY           SKY/WX    TMP DP  RH WIND       PRES   REMARKS
VALENTINE      SUNNY     56  51  84 CALM      30.36R
AINSWORTH      SUNNY     55  54  95 CALM      30.36S
BROKEN BOW     SUNNY     59  55  87 N5        30.34S
O`NEILL        SUNNY     57  53  87 W6        30.34R
ORD            MOSUNNY   59  55  87 NW5       30.33R
THEDFORD       SUNNY     55  53  92 CALM      30.37R
$$

NEZ041-046>049-061>064-073>077-083>087-281400-
SOUTH CENTRAL NEBRASKA

CITY           SKY/WX    TMP DP  RH WIND       PRES   REMARKS
GRAND ISLAND   SUNNY     60  55  83 NW8       30.32S
AURORA         SUNNY     60  59  97 N5        30.31R
HASTINGS       SUNNY     61  55  81 N9        30.31S
HEBRON         SUNNY     62  55  77 N6        30.29R
HOLDREGE       SUNNY     59  57  91 NE5       30.33R
KEARNEY *      SUNNY     59  55  88 N9        30.33R
YORK           SUNNY     59  59 100 N8        30.30S
$$

NEZ011>018-030>034-042>045-281400-
NORTHEAST NEBRASKA

CITY           SKY/WX    TMP DP  RH WIND       PRES   REMARKS
NORFOLK        SUNNY     60  55  83 N7        30.29R
ALBION         SUNNY     56  53  89 NW7       30.32R
BLAIR          SUNNY     61  54  76 N10       30.25R
COLUMBUS *     SUNNY     59  54  82 NW7       30.30S
FREMONT        SUNNY     61  57  87 W7        30.28R
WAYNE          CLOUDY    60  58  91 NW7       30.28S
$$

NEZ050>053-065>068-078-088>093-281400-
SOUTHEAST NEBRASKA

CITY           SKY/WX    TMP DP  RH WIND       PRES   REMARKS
LINCOLN        SUNNY     63  55  75 N8        30.28R
OMAHA EPPLEY   MOSUNNY   60  56  86 N5        30.25R
BEATRICE       SUNNY     60  57  90 N8        30.26S
FALLS CITY     SUNNY     62  57  83 N6        30.23
NEBRASKA CITY  SUNNY     61  58  90 N5        30.25R
PLATTSMOUTH    SUNNY     61  57  87 NW6       30.25R
$$

NEZ044-045-051>053-067-281400-
OMAHA AREA

CITY           SKY/WX    TMP DP  RH WIND       PRES   REMARKS
OMAHA EPPLEY   MOSUNNY   60  56  86 N5        30.25R
BLAIR          SUNNY     61  54  76 N10       30.25R
FREMONT        SUNNY     61  57  87 W7        30.28R
MILLARD        SUNNY     63  56  78 NW6       30.26R
OFFUTT AFB     MOSUNNY   63  59  87 N9        30.24R
PLATTSMOUTH    SUNNY     61  57  87 NW6       30.25R
WAHOO          FAIR      62  56  82 NW7       30.27S
$$


USA.gov is the U.S. government's official web portal to all federal, state and local government web resources and services.